Theta_e
361 360 360 360 360 360 360 358 360 361 362 359 362 362 361 359 359 355 355 355 353 354 354 354 355 355 353 354 353 357 358 354 353 353 355 356 360 359 359 359 357 357 357 356 356 357 357 356 356 355 356 355 356 356 356 355 354 355 356 356 357 357 357 357 358 358 358 359 359 359 358 357 357 357 357 356 356 355 356 355 354 353 353 350 350
357 358 358 358 359 360 361 360 360 360 360 361 363 362 361 361 360 359 355 355 354 354 353 352 351 353 354 353 352 352 357 355 353 352 356 355 358 361 355 359 357 358 357 356 356 357 357 357 356 356 357 356 356 356 355 354 355 356 356 356 357 357 358 358 358 358 357 358 359 359 358 357 357 356 356 357 356 356 356 356 354 353 354 353 352
357 357 359 358 362 363 361 362 361 362 363 362 365 365 364 361 363 360 357 356 355 354 355 353 353 352 352 351 352 355 355 357 354 352 350 354 357 359 364 358 359 358 358 357 357 357 357 357 357 357 357 356 357 356 356 356 356 356 357 357 357 358 358 358 358 358 357 359 359 358 358 357 357 357 356 356 357 357 356 356 356 356 355 354 354
360 359 361 361 362 361 362 362 360 362 364 364 364 365 363 363 364 363 360 358 355 355 356 352 352 351 353 351 353 353 354 354 352 350 352 354 358 360 362 362 358 358 359 359 360 359 359 358 359 359 358 357 357 358 357 357 357 357 357 358 358 358 358 358 359 358 358 359 359 358 358 357 358 358 358 358 358 358 358 358 358 357 357 356 355
361 363 363 362 362 362 361 363 363 364 366 366 368 367 364 359 361 362 357 357 355 354 353 352 352 352 353 351 352 352 354 356 357 355 354 356 356 356 359 361 365 360 358 359 359 360 361 361 361 361 361 360 360 359 359 359 359 359 359 359 359 359 360 360 359 359 360 360 361 360 360 359 359 358 359 359 359 359 359 359 359 358 358 358 358
366 365 362 361 364 363 362 362 364 366 367 368 363 364 361 362 358 357 355 356 352 354 352 351 350 351 352 351 354 355 355 353 354 354 355 354 355 360 358 361 361 364 366 360 359 360 361 360 361 361 363 362 362 362 362 362 362 361 362 362 361 361 362 362 362 361 361 362 362 362 362 362 361 361 359 360 360 360 361 361 362 362 362 362 361
368 365 363 361 360 361 361 361 365 367 363 366 363 364 362 362 359 357 356 354 352 355 353 352 349 351 354 355 353 354 355 353 354 354 353 358 360 356 360 361 358 362 364 364 364 361 361 361 360 361 360 362 362 363 363 364 364 363 363 364 364 363 364 364 364 364 364 364 364 364 364 364 363 362 361 362 362 362 362 362 363 363 363 363 362
367 366 362 363 360 360 361 365 366 367 366 366 366 363 362 362 364 361 356 350 354 351 353 352 350 348 352 354 354 356 354 355 355 354 353 359 360 359 361 362 363 361 359 364 365 373 364 362 362 362 362 362 364 364 365 365 366 365 365 364 365 366 365 366 366 366 365 365 365 365 365 364 362 362 362 361 362 363 363 364 364 364 364 364 364
368 367 365 364 360 361 360 364 368 366 366 364 363 363 361 355 364 365 364 359 350 348 350 354 350 350 351 351 352 356 355 357 356 355 354 356 358 357 358 359 361 357 367 362 365 367 370 366 364 364 364 364 364 365 366 367 366 366 367 367 366 367 368 367 367 367 367 367 366 366 366 366 363 363 364 364 364 364 365 365 365 365 364 364 364
368 368 367 365 365 363 363 366 367 365 366 364 363 363 364 362 361 363 364 363 357 353 352 352 347 347 350 349 354 351 354 357 357 357 356 355 356 357 359 359 360 359 360 362 360 363 367 371 366 366 366 367 366 365 365 365 364 365 366 367 368 368 368 368 368 368 368 368 368 368 367 368 366 365 365 366 366 366 366 366 365 365 364 364 364
367 367 367 364 363 364 364 365 366 365 365 363 362 365 364 364 362 364 366 365 361 356 354 353 349 349 346 349 352 356 357 354 357 357 355 354 354 355 355 361 359 359 362 364 361 363 364 366 368 370 373 367 368 366 365 365 365 366 366 367 367 368 369 370 370 370 370 369 369 369 369 368 368 367 366 367 367 367 366 365 365 364 364 364 364
368 369 368 365 364 363 364 364 365 364 363 362 360 362 364 365 363 361 364 362 361 359 354 353 351 349 350 350 353 354 356 356 356 353 356 355 356 358 354 356 361 361 359 362 361 358 362 365 366 364 365 371 370 368 366 366 366 366 365 365 364 365 366 367 369 370 371 370 370 370 369 369 369 368 368 367 367 366 365 365 364 364 364 364 363
369 370 370 366 366 363 365 365 366 365 363 363 365 364 365 364 363 366 361 358 356 356 353 354 350 346 351 348 351 353 354 357 354 351 351 351 352 353 353 356 357 359 361 361 362 362 359 364 364 366 366 368 375 370 370 369 368 367 365 363 364 365 367 368 369 369 369 370 370 370 369 369 369 367 367 367 366 365 365 365 364 364 363 363 362
368 372 372 368 366 363 364 365 363 365 366 367 366 364 365 365 364 366 364 357 355 353 352 352 346 343 342 342 343 348 353 350 349 347 348 349 351 353 355 352 350 354 357 361 363 359 357 360 365 364 366 367 367 367 372 379 376 365 363 363 365 367 367 368 369 370 370 371 371 371 370 369 367 367 367 367 366 365 365 365 364 363 362 362 362
369 370 370 368 365 365 365 366 366 364 364 365 363 363 366 364 365 361 359 360 355 356 358 357 343 348 352 345 336 338 346 346 346 346 345 346 349 349 351 349 350 355 358 358 359 362 355 358 361 365 366 368 366 366 367 368 371 366 366 366 365 365 367 368 369 369 371 372 371 371 370 368 367 367 366 366 366 365 365 364 364 363 362 362 362
368 367 367 365 364 364 365 366 366 367 367 364 362 363 366 365 364 364 362 354 351 352 356 359 355 348 341 343 342 338 333 341 344 344 344 346 347 347 348 349 350 353 358 355 352 359 361 361 360 363 366 366 367 365 365 362 364 371 370 370 366 365 368 370 370 369 369 371 371 371 370 368 367 367 366 366 366 365 365 364 363 362 362 362 362
367 369 365 365 365 366 366 366 366 365 366 364 362 362 364 365 364 366 362 359 351 352 354 356 359 361 354 346 338 338 338 338 339 342 344 342 344 344 344 348 348 351 351 350 353 358 355 355 361 363 364 366 366 364 366 366 367 372 378 372 369 368 369 370 371 370 370 370 370 370 369 369 367 366 366 367 366 366 365 364 363 362 362 362 362
365 366 367 365 367 365 366 363 366 365 366 366 365 362 364 365 366 366 364 365 364 354 349 356 358 363 360 354 354 345 342 345 341 333 348 344 345 344 347 346 347 349 354 354 350 352 358 358 360 362 362 362 361 363 362 363 367 367 368 375 367 370 369 367 369 371 372 370 370 371 369 369 367 367 366 366 366 366 366 365 363 362 362 362 362
365 367 367 366 369 367 368 367 364 367 368 367 363 362 362 365 366 367 365 367 367 357 352 350 358 357 357 356 355 356 351 348 341 343 338 343 345 344 345 346 345 346 347 347 349 351 353 356 353 353 360 362 361 360 366 363 364 368 368 368 367 369 371 367 368 370 371 371 370 370 369 368 368 366 366 366 366 366 366 366 364 363 363 363 362
364 366 368 366 368 369 369 368 365 366 366 365 365 364 366 369 369 368 369 367 367 362 360 353 352 352 357 357 355 354 355 351 349 346 343 341 340 344 346 345 346 344 345 345 346 347 350 354 351 352 355 361 361 360 365 364 368 371 371 365 369 369 370 369 368 368 371 369 370 370 369 368 366 366 367 367 366 366 366 366 365 364 364 363 362
365 365 367 368 367 369 368 367 364 367 367 366 365 365 367 368 368 368 366 366 365 365 365 361 357 353 360 358 358 354 351 350 354 352 345 341 337 340 341 344 346 344 345 346 347 348 349 348 349 351 355 364 365 362 360 365 366 371 369 367 370 369 370 367 366 369 368 369 368 369 368 366 366 368 368 368 367 366 366 367 366 365 364 363 362
364 365 367 367 369 370 367 364 363 363 364 368 368 367 368 368 369 369 367 365 366 367 364 365 362 361 361 360 357 355 354 351 349 347 346 349 339 338 341 340 339 341 348 346 348 348 350 350 351 351 357 356 361 359 364 367 369 367 370 362 370 368 368 367 365 367 367 367 366 367 367 367 366 366 367 367 367 367 367 367 367 366 365 364 363
360 363 364 365 367 369 365 364 366 367 364 367 367 364 363 364 367 368 367 366 363 366 366 364 365 363 360 359 357 353 350 349 348 348 346 345 342 341 341 341 341 340 342 347 350 348 349 350 348 347 357 351 362 363 367 367 363 367 361 362 363 367 367 366 366 365 362 361 365 365 365 365 366 367 368 367 367 367 367 367 367 367 366 365 364
361 360 361 362 365 366 367 367 366 367 365 367 367 365 365 366 368 367 367 368 367 365 365 362 360 362 360 358 357 356 355 354 350 353 348 348 343 344 341 344 345 344 344 352 350 348 347 348 349 352 355 359 364 366 369 369 371 354 367 364 364 365 365 365 367 365 362 361 360 360 361 362 363 364 365 366 367 367 367 367 367 367 367 366 365
360 360 360 363 365 366 366 364 367 368 369 368 367 367 367 365 368 366 368 367 367 367 363 362 361 360 358 359 358 358 357 356 354 352 351 351 350 343 345 343 340 341 346 346 344 347 348 349 352 352 358 364 364 369 365 364 367 371 359 362 358 365 363 364 366 363 362 360 360 360 363 363 364 363 363 364 365 365 365 366 366 366 366 367 366
361 362 362 363 364 366 368 369 370 369 369 370 368 368 368 366 368 367 365 368 370 366 364 362 361 361 363 358 359 358 357 358 358 353 352 350 349 347 349 346 343 341 347 348 350 343 348 352 352 358 358 362 364 368 371 364 366 364 363 364 363 357 363 362 363 363 362 359 359 359 360 363 363 364 365 364 364 364 365 365 365 365 366 367 367
363 366 368 368 368 370 369 369 369 370 370 369 366 368 369 368 370 369 371 370 369 367 365 363 359 361 361 360 360 359 360 360 359 357 356 353 352 353 352 346 344 341 342 348 350 347 344 351 352 357 364 371 368 370 370 366 365 362 365 381 366 359 360 359 359 359 359 358 358 358 360 360 362 363 364 364 364 364 365 366 366 366 366 366 366
366 368 367 368 370 371 371 369 372 369 369 370 369 368 368 366 369 370 367 366 368 368 368 364 361 360 358 361 360 354 360 361 362 359 360 361 358 357 356 353 346 341 344 340 343 345 350 347 353 360 362 364 367 366 368 365 361 361 365 372 367 369 357 357 356 355 354 353 354 357 356 357 359 362 362 363 363 362 362 364 365 365 365 365 365
366 365 368 369 371 371 369 367 370 370 370 370 367 369 369 366 366 368 366 366 369 369 366 365 364 360 360 361 358 358 359 362 362 362 365 365 362 362 360 356 353 348 341 338 342 341 343 350 346 356 366 360 364 360 361 364 364 359 363 366 367 369 358 353 353 352 352 351 352 353 354 356 359 359 359 359 358 358 359 360 361 362 363 363 364
365 363 368 368 370 369 370 369 369 369 369 368 369 369 369 367 369 370 368 372 370 370 369 366 364 365 361 360 361 359 362 360 360 361 366 367 361 360 361 361 361 353 351 345 348 349 347 349 349 350 360 363 359 358 358 360 364 363 363 364 364 366 355 353 354 353 352 351 350 350 351 353 354 354 352 351 352 354 357 359 360 361 362 362 363
367 369 369 369 369 368 370 369 369 370 369 369 371 370 370 368 367 367 369 371 369 368 370 367 364 364 365 360 365 361 363 361 362 358 362 365 363 361 360 362 363 361 358 354 347 354 350 350 354 357 355 359 358 357 355 356 358 361 363 367 367 361 355 367 359 355 352 350 349 347 347 348 348 347 347 349 351 353 356 358 358 359 359 359 361
366 365 367 367 367 366 364 363 364 365 367 366 367 370 371 369 367 364 364 370 369 369 367 367 364 366 367 365 366 365 365 364 365 361 358 361 363 360 362 363 364 364 363 357 350 352 358 350 357 360 357 359 360 359 361 360 357 359 370 364 366 360 366 362 360 353 352 350 349 347 345 344 343 344 346 348 350 352 355 357 356 356 356 357 357
366 364 366 368 368 366 364 365 363 366 367 366 366 370 371 371 368 368 368 370 368 365 368 368 366 367 369 367 366 366 367 365 362 362 361 360 361 361 363 362 361 364 363 361 356 355 361 363 359 359 362 363 359 363 362 361 361 363 361 365 365 361 360 360 359 351 351 350 348 346 345 343 341 341 344 348 349 351 353 355 352 351 352 350 350
367 364 366 366 367 366 365 365 367 366 368 367 365 366 368 368 368 365 367 367 367 366 366 368 368 365 365 365 364 363 364 363 362 360 360 358 358 358 360 361 363 363 367 363 360 357 356 361 359 364 361 362 359 365 363 361 362 365 362 363 361 359 357 360 359 354 348 352 348 346 344 342 341 341 342 345 347 348 349 348 346 344 343 343 339
366 366 365 365 368 369 367 367 369 369 369 366 364 367 368 368 369 367 364 367 368 367 366 367 365 367 364 363 360 361 359 362 363 361 360 361 361 360 358 359 358 360 363 365 363 357 356 357 361 357 361 362 362 362 364 361 366 365 365 361 356 355 357 356 356 353 348 349 348 347 343 341 341 340 340 341 343 344 344 342 338 336 335 334 331
361 365 366 366 368 371 369 370 372 370 370 367 367 367 368 369 369 369 369 369 368 367 367 366 365 366 364 363 360 360 363 362 362 361 359 359 362 363 361 364 364 363 365 365 367 363 360 356 361 361 362 362 363 364 363 363 360 362 361 361 360 358 356 354 354 352 348 347 348 346 344 342 340 339 338 338 338 337 335 335 334 334 333 332 331
361 363 365 368 369 371 365 368 369 371 370 370 369 367 367 368 368 366 367 369 369 369 368 368 366 366 364 363 362 364 364 362 361 359 360 362 363 363 361 363 363 364 365 365 365 365 362 359 359 362 364 364 364 364 364 359 359 360 360 360 358 358 361 357 350 348 344 342 343 343 343 343 342 341 339 339 338 338 337 336 334 334 332 331 330
360 359 364 363 364 366 367 367 368 370 370 371 372 371 368 368 367 367 368 368 366 368 367 367 367 367 365 366 364 363 362 361 359 361 363 361 360 357 361 364 365 365 365 365 364 364 364 362 362 358 363 359 360 363 365 364 358 353 355 357 358 358 360 355 352 348 346 345 347 348 345 346 342 335 338 340 338 337 337 336 335 334 332 330 326
355 354 356 360 363 364 365 364 364 366 369 368 369 371 369 368 368 369 366 366 367 365 365 363 363 361 360 360 362 362 361 361 359 360 364 363 359 360 362 362 364 363 362 362 363 363 362 359 358 358 357 359 360 356 359 364 365 365 359 354 355 358 358 358 356 356 352 349 350 347 349 349 346 349 341 337 337 336 336 336 336 334 333 330 325
353 353 352 352 357 360 361 362 363 365 366 367 370 371 371 368 366 367 367 365 362 363 362 363 361 360 359 358 356 358 361 364 365 364 364 362 364 361 362 363 363 361 359 358 357 357 356 355 352 351 353 356 357 360 360 358 357 357 355 349 346 350 355 360 360 358 360 362 357 352 348 349 348 346 335 335 338 337 338 338 339 340 338 334 330
353 352 352 351 353 354 357 358 360 360 359 361 362 366 368 368 366 363 363 363 363 362 360 358 359 361 360 358 356 356 359 359 362 368 367 368 362 359 362 363 363 362 361 359 357 355 356 354 353 355 352 352 354 354 349 349 348 347 351 354 356 357 356 352 355 360 361 360 359 355 355 356 355 355 357 360 364 362 361 343 349 347 341 335 332
358 359 358 355 354 353 355 358 360 357 356 357 364 367 367 365 366 363 363 365 366 364 363 362 358 358 357 357 356 357 363 364 368 370 363 359 360 362 363 364 363 362 360 359 357 356 354 353 351 351 348 345 344 348 346 347 349 351 348 352 352 352 355 356 358 361 361 359 360 362 361 359 355 357 361 361 362 369 363 364 364 356 348 339 336
361 363 362 359 356 354 353 355 356 354 351 353 364 348 349 354 362 362 362 364 366 366 364 364 362 359 358 358 358 359 365 371 369 363 360 357 356 354 354 357 362 365 362 358 358 357 354 353 351 350 347 348 350 353 351 346 345 347 350 353 351 352 352 353 352 360 366 367 365 363 362 364 365 361 364 362 363 365 365 365 345 343 339 336 334
364 362 360 359 360 358 355 355 354 352 351 362 342 343 345 344 355 362 360 359 359 360 361 359 359 359 357 356 355 354 355 358 361 370 370 362 354 354 353 353 354 354 356 363 361 358 359 355 354 354 353 352 352 354 348 347 350 352 355 356 357 356 356 354 354 353 362 367 364 362 359 365 364 361 362 364 365 366 362 351 343 341 337 334 333
364 364 364 360 361 361 359 358 355 354 351 335 336 338 340 338 339 356 359 359 357 356 357 358 360 361 363 362 359 357 354 358 362 363 369 371 366 355 354 355 355 352 343 342 347 363 362 360 358 356 355 356 356 356 355 357 364 360 359 356 359 358 359 356 356 355 362 369 365 362 358 360 363 362 360 362 364 365 365 349 340 339 337 335 333
363 363 363 364 364 365 363 361 361 359 360 335 330 331 332 333 335 344 360 358 358 357 358 359 358 360 363 365 364 363 363 365 370 369 370 371 371 371 372 371 370 367 354 342 340 341 352 357 358 357 361 363 360 363 368 370 366 362 359 357 363 360 360 360 365 364 367 367 362 359 357 359 362 358 359 363 364 368 370 354 342 340 338 336 333
360 360 361 361 363 364 364 363 362 359 345 326 326 328 327 327 329 339 359 357 356 357 358 359 363 364 366 364 364 362 365 367 368 367 368 368 367 364 366 365 365 364 363 362 363 361 359 358 360 361 363 364 365 366 368 369 367 366 364 365 365 365 365 367 366 368 367 369 368 363 355 359 363 358 357 359 361 364 368 350 340 337 336 334 333
358 358 359 360 360 360 360 359 358 353 344 319 321 321 323 326 328 351 359 362 360 359 359 360 363 366 367 366 367 365 366 369 360 354 362 365 363 362 362 363 363 362 358 364 350 354 364 359 359 359 359 361 345 365 366 360 361 362 360 358 360 360 358 357 355 357 353 357 356 352 350 354 363 355 357 361 362 363 367 368 349 340 335 334 334
354 357 356 352 353 353 355 357 351 350 342 325 317 317 318 320 335 360 363 361 361 361 361 362 364 365 365 367 368 364 363 359 335 330 337 357 361 361 361 361 360 358 353 353 346 338 338 335 332 332 330 330 330 328 326 326 345 353 356 353 352 356 354 351 352 351 351 355 356 357 352 350 356 358 356 359 363 363 363 365 368 347 333 333 332
350 349 350 351 351 352 350 349 350 344 340 327 315 315 316 316 333 358 362 362 362 363 362 364 365 366 366 362 360 363 359 347 323 323 325 351 360 361 360 359 360 358 356 356 357 351 332 328 327 328 329 330 330 329 329 328 327 336 353 350 353 354 350 350 347 350 353 356 356 359 354 351 356 359 356 359 361 362 362 364 365 360 342 330 328
347 348 345 347 348 350 350 349 349 344 342 335 316 314 314 315 334 357 361 360 357 360 361 361 363 363 360 356 350 339 339 330 316 319 323 342 355 358 360 358 356 357 357 358 359 361 362 362 367 368 361 346 351 356 358 338 332 340 351 354 356 354 351 351 352 352 350 353 358 365 355 355 357 358 358 354 352 357 361 362 363 366 366 368 368
Wind_Speed
7 8 7 7 7 7 6 6 6 5 5 5 5 5 5 5 4 5 4 4 6 6 5 5 5 5 5 5 6 5 4 4 5 3 3 3 3 7 3 2 0 1 1 2 2 3 2 2 3 3 3 3 3 4 4 4 4 4 5 6 6 6 7 7 8 8 8 8 8 8 7 7 6 6 4 5 4 5 5 5 5 5 5 5 4
7 7 7 7 7 7 6 6 6 5 5 5 5 5 4 4 4 4 5 4 5 4 5 5 6 6 4 5 5 6 5 5 4 4 3 3 3 5 6 2 2 3 2 1 2 2 3 3 3 3 4 4 4 4 3 4 4 4 5 6 6 7 7 8 8 8 7 7 8 7 7 6 5 5 4 4 5 5 6 6 6 5 5 6 5
7 7 7 7 6 6 6 6 5 5 5 5 5 4 4 5 4 4 4 4 5 3 4 5 4 5 5 5 5 5 5 3 4 4 5 3 3 2 6 6 4 3 2 2 2 2 3 3 4 4 4 4 5 4 4 4 5 5 6 6 6 7 7 7 7 8 7 7 7 7 6 6 6 5 4 4 5 6 6 7 7 7 7 6 7
7 7 7 6 6 6 6 6 5 4 4 5 5 4 5 5 5 4 4 4 5 4 3 4 4 5 3 6 5 4 5 3 5 5 4 4 2 3 2 5 8 6 5 4 3 3 3 4 4 5 4 5 5 5 5 5 6 5 6 6 6 6 7 7 7 7 7 7 7 7 6 6 5 6 6 6 5 6 6 7 8 8 8 8 7
6 6 6 6 6 6 6 5 5 4 5 5 4 3 4 5 6 4 4 4 5 4 3 4 5 4 2 5 4 4 4 4 3 3 4 4 3 2 2 2 5 10 9 7 7 6 5 5 5 5 6 6 6 6 6 6 6 7 7 7 7 7 8 8 7 6 7 7 7 7 7 7 7 7 7 7 7 7 7 8 9 9 9 9 9
5 5 5 6 6 5 5 5 4 4 4 3 3 3 5 4 4 5 2 3 4 3 3 3 4 3 4 4 4 3 2 3 2 4 2 4 4 2 3 3 2 3 5 11 9 9 9 8 8 7 7 8 8 8 8 8 8 8 8 8 8 8 9 9 9 8 7 8 8 8 8 8 8 8 8 9 9 9 9 10 10 11 11 11 11
4 4 4 4 5 5 5 4 4 3 4 3 2 4 4 4 4 3 2 3 4 3 3 3 4 4 3 3 3 4 1 3 3 2 3 3 1 4 2 2 2 2 2 4 11 11 9 10 10 9 9 9 9 9 9 9 9 9 9 9 9 9 9 10 9 9 8 8 9 8 9 9 9 9 9 10 10 10 11 11 11 12 12 12 12
4 2 3 3 4 5 5 4 3 3 3 3 2 4 4 4 4 4 3 3 3 4 3 3 3 4 3 2 4 2 2 2 2 1 4 2 3 3 2 2 1 2 1 1 2 7 12 10 9 10 10 10 10 10 10 10 10 10 10 10 10 9 9 9 9 9 9 9 9 9 9 8 8 9 9 9 10 10 11 11 11 12 12 12 12
3 2 2 3 4 5 5 4 2 3 2 2 3 3 3 4 4 4 3 3 4 3 3 3 3 4 4 4 5 2 2 2 2 3 3 2 2 4 3 3 2 2 3 2 1 3 11 10 10 10 10 10 9 10 10 10 10 11 11 10 10 10 10 9 9 9 9 9 9 9 9 8 8 8 9 10 10 11 11 11 11 11 11 10 10
3 2 2 3 3 4 5 4 3 3 2 2 3 3 3 3 4 4 4 3 3 2 4 3 2 3 3 5 3 2 3 2 3 1 2 2 2 2 1 1 2 1 2 2 2 0 2 10 11 11 11 10 9 9 9 9 10 10 10 10 10 10 10 9 9 9 9 9 9 9 9 9 8 8 9 9 10 10 10 10 10 10 9 9 9
3 2 2 3 4 4 4 3 3 2 2 2 3 4 4 4 4 4 3 4 3 2 3 2 2 2 4 5 5 3 1 3 2 2 1 1 4 1 4 2 1 2 2 2 2 3 0 1 3 3 6 12 8 8 8 9 9 8 8 9 9 9 9 9 9 9 9 9 9 9 9 8 8 8 8 9 9 8 9 9 9 9 9 8 8
3 2 2 2 3 4 4 3 3 3 2 3 2 3 4 4 4 4 4 2 1 1 4 2 3 4 2 4 4 3 2 1 2 3 3 3 4 0 2 4 2 1 3 2 1 1 2 1 1 1 1 9 8 8 9 8 7 7 7 7 7 7 7 7 7 8 8 8 8 8 8 8 7 7 7 7 7 7 8 8 8 8 9 8 8
3 2 2 2 3 4 4 3 3 3 2 3 3 4 3 2 2 2 3 3 2 2 4 3 2 4 3 4 5 2 5 1 1 2 3 3 4 3 3 2 2 3 2 2 0 0 3 2 1 1 1 1 6 10 8 8 7 6 6 5 6 6 6 6 6 6 7 7 7 6 6 6 6 6 6 6 6 6 7 7 7 7 8 8 7
3 2 2 3 3 4 3 3 2 3 2 3 3 3 2 1 2 1 2 3 3 5 4 2 3 4 3 5 6 5 2 3 5 4 4 4 4 3 2 1 2 3 3 3 3 4 3 4 1 3 2 1 3 2 1 5 6 5 3 4 5 4 4 4 5 5 5 6 6 5 6 5 6 5 5 5 6 6 6 6 7 7 7 7 7
3 2 2 2 3 3 3 3 2 3 3 3 3 2 1 1 1 2 2 2 2 3 4 6 4 4 2 2 4 5 3 3 3 3 2 4 3 3 1 4 4 3 2 2 2 2 3 3 4 2 2 2 2 2 2 3 6 2 2 3 4 4 3 3 3 4 5 5 5 6 6 6 6 6 5 5 6 6 6 6 6 7 6 6 6
4 3 3 3 3 3 3 3 3 2 2 2 2 2 1 1 1 3 3 2 3 5 4 5 5 3 3 3 2 4 5 4 4 4 4 3 2 5 3 4 5 4 2 2 3 3 3 2 3 2 1 2 2 2 2 4 3 6 4 1 3 3 3 2 2 2 4 4 5 5 6 6 6 6 6 6 6 6 6 5 6 7 6 6 6
4 4 3 3 2 2 2 2 2 2 2 2 1 2 2 2 2 2 4 4 3 3 4 4 6 5 4 0 4 4 4 4 6 4 2 5 4 5 3 2 5 3 1 4 1 2 1 3 2 1 0 0 0 1 2 3 3 2 5 6 1 2 2 2 3 3 3 4 4 5 6 6 6 6 7 7 6 6 6 5 5 7 7 6 6
4 3 3 3 3 2 1 2 3 2 1 1 2 2 1 1 3 2 3 4 3 2 5 4 4 4 2 4 4 4 3 3 0 3 2 2 4 3 3 2 4 3 1 3 2 1 3 3 2 3 2 1 2 1 2 1 1 2 2 4 1 2 2 2 3 4 4 4 5 5 6 6 7 7 7 7 7 7 6 6 6 6 7 6 6
5 4 3 3 2 2 2 2 2 2 2 2 2 2 3 2 2 2 3 3 3 2 1 4 3 1 3 4 4 4 4 4 4 1 4 3 4 3 4 3 3 3 4 3 5 3 3 2 2 3 4 1 2 1 0 2 2 1 1 2 2 3 3 3 4 5 5 5 6 5 6 7 7 7 8 7 8 8 7 7 6 6 7 7 7
4 4 3 4 3 3 2 1 2 2 2 2 1 1 3 2 2 2 2 2 3 4 3 3 2 3 5 4 4 5 3 4 6 3 1 3 3 1 3 3 2 4 3 2 4 3 5 1 4 2 4 3 1 1 2 1 1 1 3 4 2 3 3 4 4 5 6 6 6 6 6 7 8 8 8 8 8 9 8 7 7 6 7 7 7
4 5 4 4 3 3 3 2 2 2 2 2 2 3 2 2 2 1 2 2 3 3 3 3 3 4 3 4 4 2 3 2 3 1 3 2 3 4 3 2 3 3 4 3 3 2 2 6 0 5 4 3 1 1 1 1 1 0 2 5 2 3 4 5 5 6 7 7 7 7 6 7 8 8 9 9 9 9 9 8 8 7 7 7 8
5 5 4 4 4 4 4 4 4 3 2 2 2 2 2 2 1 1 2 2 2 2 3 2 3 3 4 3 2 3 2 1 1 2 4 0 2 1 3 3 2 1 1 3 3 2 2 1 1 5 0 6 2 1 2 1 1 1 5 3 4 5 5 6 6 6 7 7 7 7 7 7 8 8 9 9 9 9 9 10 9 8 8 8 8
5 5 5 5 4 4 4 4 3 3 3 3 4 3 4 4 3 2 1 1 1 2 1 1 1 2 0 2 3 1 2 2 3 4 4 2 3 4 3 4 5 5 2 6 5 1 1 1 3 5 2 5 3 1 1 2 1 4 4 7 6 6 6 6 6 6 7 8 7 7 8 8 8 8 8 9 9 9 10 10 10 9 10 10 10
5 5 6 6 4 4 3 3 3 3 3 3 2 2 1 2 2 1 1 1 0 1 3 2 3 0 4 1 1 1 1 3 2 2 1 4 4 5 2 1 3 3 5 2 4 1 1 1 1 2 3 2 2 2 1 3 3 4 6 5 7 6 6 6 6 7 7 8 7 7 8 8 9 8 8 8 9 9 10 10 10 10 10 11 10
5 6 6 6 5 4 4 3 3 3 1 0 1 1 0 1 2 2 1 1 1 1 2 3 3 4 4 3 3 2 1 1 1 4 2 1 3 3 6 7 2 1 4 1 3 2 2 2 2 3 1 1 1 2 4 3 2 5 3 6 7 5 5 6 6 6 7 7 7 7 8 9 9 9 7 7 8 8 9 10 11 11 11 11 11
6 5 5 6 5 5 4 4 3 3 3 2 2 1 1 2 2 2 3 2 1 2 3 3 3 3 3 3 5 3 3 3 2 3 3 2 2 4 3 3 9 4 2 1 0 5 2 1 0 2 1 2 2 1 3 5 1 5 3 6 5 7 3 4 4 5 6 7 8 8 8 8 8 9 8 8 8 8 8 9 10 11 12 11 12
4 4 4 5 5 4 4 4 4 4 4 3 3 3 3 2 1 2 2 1 3 3 3 3 4 2 3 3 3 5 2 3 3 3 4 4 4 4 3 4 5 7 5 2 2 3 3 2 2 3 2 1 2 2 3 5 3 4 5 6 3 9 2 2 5 5 6 7 7 8 8 8 8 9 9 9 8 9 9 9 10 10 11 11 11
3 4 5 5 5 5 5 5 4 4 4 4 4 4 4 3 3 3 4 3 3 3 4 4 4 4 4 3 4 5 3 4 4 4 3 4 4 4 4 4 4 6 6 6 6 5 2 5 1 1 1 3 3 5 2 4 4 3 7 6 4 1 7 2 4 6 7 7 7 8 8 8 8 8 9 9 9 9 9 10 10 10 10 11 11
4 5 5 5 4 5 4 4 5 4 4 4 4 3 3 4 4 3 3 4 2 3 4 3 4 4 3 2 3 3 4 3 4 4 2 3 4 3 3 4 4 5 6 6 5 6 9 6 6 2 2 4 6 5 6 4 2 3 6 6 5 5 5 6 5 7 8 7 7 7 8 8 8 8 9 9 9 10 10 10 10 10 10 11 11
4 3 4 5 4 4 4 3 4 4 4 4 4 4 4 4 3 3 3 2 2 3 4 4 4 3 3 4 3 3 2 4 5 4 1 2 4 4 4 3 2 4 4 6 6 7 6 7 8 5 3 4 6 5 5 6 9 3 5 7 7 6 6 11 9 8 8 8 7 8 8 8 8 8 8 9 9 9 9 10 10 9 10 10 11
4 3 4 5 5 5 4 4 4 4 4 4 4 4 4 4 3 4 4 4 4 4 4 4 4 3 2 4 3 3 3 4 5 5 4 3 4 3 4 3 3 3 3 4 6 4 7 7 7 6 7 5 5 6 6 7 3 1 6 7 7 6 10 12 12 9 8 8 8 7 8 8 8 8 8 9 9 9 8 9 9 9 9 10 10
6 6 5 5 5 6 6 6 5 5 5 5 5 5 4 4 3 4 2 3 4 4 4 4 3 2 3 3 3 3 3 4 4 5 5 5 4 4 4 3 3 4 4 4 6 7 5 8 8 8 8 7 6 5 7 6 2 9 4 7 7 6 9 7 10 11 9 8 7 8 8 9 9 9 9 9 9 8 8 8 8 8 8 8 9
5 6 6 5 5 5 5 4 5 4 4 4 4 4 4 4 4 4 4 3 4 4 4 4 5 4 4 4 4 4 4 5 5 5 5 5 5 5 4 4 5 4 4 4 6 7 6 6 7 7 7 7 7 5 6 7 8 7 9 8 9 8 8 6 6 11 11 8 7 7 9 10 9 10 10 9 9 9 8 7 8 8 7 7 7
6 6 6 6 6 5 6 5 4 5 5 5 5 5 5 5 5 5 6 5 5 5 4 5 5 4 4 5 5 5 5 5 5 6 6 6 5 5 4 4 4 4 3 4 5 6 8 6 6 7 8 6 7 5 7 8 8 8 9 8 7 7 6 7 6 6 12 7 7 7 9 10 10 10 10 10 9 10 10 9 9 8 8 6 6
7 6 6 6 5 5 5 5 5 5 6 6 6 6 5 5 5 5 4 4 5 5 5 5 5 5 5 5 6 5 5 4 4 5 5 5 5 5 6 6 6 6 6 5 5 7 8 7 7 8 6 6 7 7 7 7 7 6 7 7 7 6 6 7 7 8 10 5 8 10 10 11 11 11 11 10 10 10 10 10 10 9 9 7 6
8 7 6 6 6 6 6 5 5 5 6 6 6 6 7 6 6 6 6 5 5 5 5 5 5 5 5 5 5 5 4 4 5 5 5 5 4 4 5 4 5 5 5 5 5 6 6 8 6 7 7 7 7 7 6 6 6 6 6 7 7 7 8 7 8 9 3 6 10 12 12 12 12 12 11 11 10 10 11 11 11 10 10 9 7
7 8 7 6 6 7 7 7 6 6 6 6 6 7 6 6 6 6 6 5 6 5 5 5 5 5 5 6 5 5 5 5 5 5 5 4 4 4 5 4 4 4 4 5 6 6 6 7 7 6 7 7 7 6 6 7 6 6 6 6 7 7 6 8 9 8 9 11 14 14 12 13 13 12 12 12 11 11 11 11 11 11 10 10 8
7 7 8 8 7 8 7 6 6 6 6 6 6 6 7 7 6 6 6 6 6 6 6 6 6 5 6 6 5 5 5 5 5 5 4 5 5 6 5 4 5 5 5 6 6 6 7 7 7 8 6 7 6 6 6 6 7 8 7 6 7 6 6 8 8 9 9 9 8 6 8 11 12 12 13 11 11 12 12 12 12 11 11 10 10
9 9 8 8 6 7 7 7 7 7 6 6 6 6 7 7 6 6 6 6 6 6 6 6 6 6 7 7 6 6 6 6 6 6 5 5 5 6 5 5 5 5 6 6 6 6 7 7 7 7 7 6 6 7 6 6 7 7 7 8 8 7 7 7 8 8 8 9 10 10 10 10 11 11 8 10 12 13 13 13 12 12 10 10 10
9 9 9 9 8 7 7 7 7 7 7 7 7 7 7 7 7 7 7 7 7 7 6 6 6 6 6 6 7 6 6 6 6 6 6 5 5 5 5 4 5 6 7 6 7 7 7 8 8 8 7 7 7 7 7 6 6 6 6 8 9 9 8 7 8 9 8 9 9 10 5 7 9 11 14 14 15 14 14 13 15 13 11 10 10
8 9 9 8 8 9 8 8 7 7 7 8 7 7 7 7 7 7 7 7 7 7 6 7 7 7 7 7 7 7 5 4 5 5 7 6 6 6 6 5 6 6 7 6 6 6 7 7 8 7 8 8 7 7 7 6 6 7 7 8 8 8 8 9 8 8 8 9 9 10 9 10 11 11 11 10 8 7 11 15 11 12 10 10 9
7 6 6 7 8 8 8 8 8 8 8 7 5 4 2 5 5 5 5 5 5 6 6 7 7 8 8 8 6 4 4 7 9 9 9 9 9 9 7 6 7 7 6 7 7 7 7 7 8 8 8 9 9 8 8 8 8 7 8 7 8 9 9 9 8 7 7 9 9 9 9 9 11 12 10 10 9 8 8 6 4 4 4 7 9
7 6 7 7 8 8 8 9 9 9 8 7 12 11 9 6 6 6 6 6 7 7 7 7 8 8 8 8 8 8 9 10 10 12 11 11 11 11 12 11 10 8 8 8 7 7 7 8 8 8 9 9 9 9 9 10 9 8 8 7 8 8 9 10 10 7 5 6 8 10 10 9 9 10 10 10 10 9 7 5 6 4 8 10 10
7 8 8 8 7 8 7 8 8 7 8 8 13 9 9 8 7 6 6 7 7 8 8 8 7 8 8 8 8 7 7 7 6 7 11 13 13 12 12 12 13 13 12 10 8 8 8 8 8 9 9 9 9 9 10 10 9 9 9 9 8 9 9 9 9 10 7 6 8 9 12 9 9 10 11 9 9 9 8 3 4 8 9 10 10
6 8 8 8 8 7 7 7 7 7 2 11 7 3 4 7 8 8 6 7 8 8 8 8 8 7 7 7 8 7 7 3 4 7 7 6 11 14 13 13 13 14 14 15 14 12 9 9 10 10 9 9 10 9 9 9 8 10 9 9 9 9 9 10 10 10 9 7 8 9 11 10 9 10 10 9 9 9 9 6 9 9 10 11 11
5 6 8 8 7 6 6 6 5 6 7 8 8 8 5 5 7 8 7 7 8 8 8 8 8 7 6 7 7 7 6 6 5 6 6 6 6 6 8 9 9 13 16 17 17 18 16 11 10 10 10 10 10 9 9 9 9 9 10 10 10 10 10 10 11 11 11 8 10 10 11 10 9 10 11 10 9 9 8 9 9 11 12 12 12
6 6 7 8 6 5 5 5 6 2 8 9 8 6 5 5 4 8 6 7 7 7 7 7 7 7 7 7 8 8 7 6 5 4 5 5 6 6 7 8 9 10 9 11 12 11 11 11 11 12 11 10 11 11 10 9 9 9 9 10 10 10 11 11 11 11 11 10 11 9 11 10 9 11 11 10 10 9 9 8 10 13 13 13 12
2 3 4 5 4 4 5 2 2 8 7 13 10 8 6 5 4 6 8 7 7 7 7 6 6 6 6 7 7 8 7 5 9 6 4 5 7 8 9 10 10 10 11 11 10 10 10 9 9 10 10 10 10 10 9 9 9 9 10 11 10 9 10 10 11 11 13 11 11 11 11 12 10 12 11 10 10 10 9 9 10 12 14 14 13
2 3 4 7 7 7 7 4 6 6 8 10 11 11 10 10 7 6 7 7 7 7 6 5 5 5 6 5 6 6 7 8 11 10 7 5 6 7 8 10 10 11 12 11 11 16 14 15 14 13 13 15 16 16 15 15 10 9 8 9 11 9 9 11 12 12 12 10 10 11 12 13 11 10 11 10 9 10 11 10 9 8 14 14 14
5 6 7 6 7 7 8 7 6 6 8 10 12 12 11 10 9 7 6 6 6 6 6 5 4 3 2 8 7 5 7 8 11 12 14 8 7 6 7 9 10 11 10 10 8 5 12 11 11 13 15 15 16 17 17 16 15 8 8 10 12 11 13 12 13 12 13 12 11 11 12 12 11 10 11 11 10 10 10 9 8 9 5 12 16
7 5 6 7 7 7 7 7 10 9 8 9 12 12 11 11 8 5 4 3 6 6 4 3 3 2 6 11 15 11 8 7 9 9 10 10 7 7 6 8 9 10 9 10 8 7 5 7 8 8 10 12 12 11 11 17 18 14 11 13 12 11 12 13 12 12 13 11 10 8 10 11 11 11 10 10 11 10 10 9 9 8 9 9 7
Wind_Direction
127 129 127 123 128 130 128 118 115 112 111 100 94 92 82 82 94 99 87 97 104 105 103 105 102 86 95 100 103 90 82 79 82 83 68 92 107 111 127 154 207 325 341 341 355 2 358 343 345 344 346 344 348 330 329 318 327 326 320 321 327 325 329 334 338 337 338 341 346 348 353 353 357 353 340 331 331 319 317 310 306 308 292 299 290
121 118 119 119 119 115 116 115 114 111 107 98 94 93 96 94 86 93 109 114 98 92 100 94 98 99 87 98 81 94 103 97 92 86 89 98 88 121 150 174 217 238 239 310 326 329 331 325 324 333 335 336 329 330 318 322 320 314 307 315 314 317 323 327 329 328 329 335 338 342 347 347 347 344 333 320 319 319 314 310 305 298 294 288 283
116 120 118 118 114 113 110 116 111 104 104 104 90 81 81 83 91 105 108 98 93 90 96 102 95 101 93 89 98 91 80 87 112 121 103 83 91 93 144 182 216 239 279 249 274 269 281 293 287 303 309 323 316 311 316 298 301 303 310 315 314 314 318 316 316 318 324 329 328 336 339 338 337 335 332 316 306 307 307 305 301 304 297 292 280
117 121 116 116 113 113 112 107 102 101 88 84 88 80 83 92 92 82 92 103 114 108 105 100 98 83 108 90 89 82 84 73 79 72 79 88 108 118 137 156 190 217 231 247 253 255 258 265 275 278 286 285 290 292 291 296 296 298 301 299 302 304 303 305 305 312 319 314 321 322 326 326 318 317 320 317 311 298 292 283 289 293 293 291 289
115 113 121 113 109 108 103 102 106 98 98 89 89 101 105 108 110 114 90 111 107 116 144 113 95 95 108 90 78 86 91 95 87 98 92 126 125 121 108 121 153 186 207 223 230 239 246 251 259 266 268 271 275 277 279 282 284 287 290 290 291 293 296 298 306 310 307 306 305 313 307 310 308 305 307 306 300 296 294 289 286 288 285 288 286
117 122 122 117 112 108 105 101 95 100 102 115 101 92 89 89 104 102 112 97 92 89 78 77 87 93 74 80 88 68 89 99 97 97 129 88 89 120 136 138 144 144 168 195 218 228 237 243 246 252 257 262 265 268 272 274 276 277 277 282 284 286 290 296 301 303 301 298 297 297 299 295 299 298 299 303 301 297 294 292 289 286 285 286 290
104 105 107 116 119 109 112 105 95 107 103 70 79 87 88 82 68 79 90 108 101 81 71 68 97 97 74 67 66 74 60 82 59 125 104 87 102 84 93 105 101 127 173 162 189 211 221 231 238 245 248 255 259 265 267 266 268 270 273 275 278 279 283 287 290 291 291 292 293 292 294 292 294 297 297 295 294 292 289 287 286 285 284 285 283
97 92 105 106 103 109 99 96 109 100 80 70 74 80 80 68 56 58 49 49 83 88 84 96 84 87 81 116 96 119 101 69 115 40 89 165 99 113 102 104 112 77 22 57 110 165 199 218 231 236 243 247 254 260 263 266 266 267 271 272 273 275 277 278 281 281 282 284 287 288 286 293 296 296 296 295 293 290 288 286 285 284 284 283 280
109 106 115 109 110 114 114 115 111 93 97 90 69 67 62 73 57 47 51 35 35 72 109 113 114 111 144 101 96 73 72 112 89 88 91 116 184 152 140 103 105 164 210 148 174 143 179 203 217 229 236 243 247 253 258 265 267 272 271 273 274 274 275 275 275 275 277 278 281 283 283 287 296 291 291 293 294 293 291 289 289 290 290 290 287
121 118 77 92 95 95 100 110 115 116 98 91 80 70 69 47 60 45 36 42 67 24 51 41 53 115 89 97 79 94 120 124 98 149 134 129 133 94 84 119 156 90 22 24 70 102 143 184 204 216 221 227 234 241 250 257 265 269 273 274 277 278 279 276 271 269 271 271 273 277 278 277 287 294 292 291 292 294 298 298 298 298 296 294 291
127 134 144 131 120 112 120 119 117 120 117 117 97 68 54 53 43 55 37 32 40 20 49 32 71 7 95 96 112 125 99 100 163 141 75 64 65 164 148 120 112 141 125 222 177 144 184 21 192 194 184 200 215 228 239 250 261 265 271 278 281 282 284 282 279 277 277 276 270 271 276 278 281 291 290 293 297 300 302 303 303 303 303 301 301
140 124 141 129 125 127 123 151 130 133 117 89 93 95 58 50 39 21 33 43 85 16 45 47 87 94 94 116 104 107 98 105 166 148 163 157 147 72 117 141 148 127 150 186 50 63 103 112 238 159 51 161 196 214 227 243 255 266 273 280 287 290 291 292 289 285 284 283 280 279 275 277 280 285 290 290 296 300 304 306 308 308 308 311 311
149 151 136 142 136 127 136 138 141 119 116 94 67 68 61 39 48 358 32 33 27 51 70 51 55 105 116 99 112 141 118 176 182 160 153 140 131 157 121 128 126 145 123 56 350 287 142 152 115 92 67 35 186 194 214 223 226 240 255 279 288 293 296 299 300 296 291 288 288 286 279 279 281 286 289 293 297 304 306 309 311 312 314 316 314
157 142 141 147 142 140 140 135 128 116 99 103 104 98 93 38 11 8 29 43 44 28 30 280 101 69 100 115 94 68 68 163 180 136 148 132 131 126 119 131 109 105 113 149 178 183 156 120 71 59 28 18 15 37 184 203 174 191 271 278 288 296 299 311 313 311 302 297 297 293 288 287 289 289 291 296 299 304 308 312 310 313 315 313 309
159 168 145 162 147 139 148 140 139 133 150 146 140 123 118 75 46 32 3 140 84 78 60 347 72 93 89 118 106 111 98 86 88 101 102 109 131 106 133 115 114 118 123 133 108 78 70 69 73 52 43 357 16 21 25 64 68 133 247 263 275 280 295 313 327 326 319 311 304 297 293 289 288 289 289 294 299 303 307 308 306 308 310 308 303
173 164 160 153 150 155 143 135 138 129 133 126 141 129 123 109 36 50 5 31 76 83 72 54 20 11 93 69 109 125 120 112 112 118 121 109 149 131 152 136 111 117 143 155 110 91 117 117 96 101 19 21 4 12 39 35 120 195 182 225 245 267 280 293 313 325 319 315 306 295 291 288 287 285 289 294 297 298 298 304 303 301 303 302 302
171 171 175 145 152 162 137 137 129 148 134 137 172 130 113 95 55 45 27 21 62 79 78 76 69 33 29 352 113 91 62 101 95 17 124 127 113 102 82 252 104 83 347 65 102 161 71 97 107 129 248 198 205 354 22 34 77 51 161 170 166 297 294 285 282 295 295 288 281 278 277 278 279 282 287 291 292 292 291 294 296 290 291 296 298
176 175 166 156 161 164 169 161 142 138 161 50 79 100 164 115 77 21 67 45 17 26 108 86 70 77 72 77 24 44 27 0 86 91 14 73 118 108 138 100 114 119 102 182 92 100 161 133 165 166 103 36 37 340 24 95 109 118 46 88 5 286 269 252 263 276 277 275 270 265 270 269 270 272 281 286 286 284 285 287 286 278 278 281 289
174 178 159 162 170 169 162 192 144 144 150 150 187 191 133 97 72 59 34 35 19 66 60 93 62 78 66 67 53 35 44 28 57 137 103 23 9 71 89 116 109 139 172 148 149 134 74 23 36 42 82 57 54 39 183 92 115 103 61 358 267 264 263 252 254 260 268 269 265 257 264 265 266 267 269 269 272 273 274 279 277 272 269 270 274
180 162 183 171 178 176 179 183 179 143 152 177 194 68 87 89 84 72 59 33 37 47 30 50 68 76 38 14 81 76 66 52 35 25 10 112 121 122 112 68 136 101 109 85 69 52 83 301 41 42 61 76 89 46 83 86 39 220 145 169 275 288 292 288 278 269 263 279 274 271 265 263 267 265 261 259 259 263 264 265 265 265 265 265 266
193 179 180 181 181 180 179 187 175 172 200 166 186 129 134 116 136 129 113 73 43 46 41 30 5 60 49 36 4 45 70 62 128 105 20 357 95 105 66 110 125 102 36 14 52 39 62 70 344 58 329 78 90 126 106 97 120 173 126 117 310 300 291 295 289 275 277 275 286 283 278 283 278 272 265 257 255 256 258 253 253 255 261 257 259
186 195 181 191 191 183 192 178 189 179 220 80 99 119 150 152 161 81 60 61 32 33 32 42 24 21 52 34 20 35 3 26 20 56 93 293 330 9 106 128 118 28 336 60 7 79 18 70 226 121 350 39 18 121 75 157 91 284 71 20 304 290 289 289 287 280 278 279 283 284 289 286 284 278 270 263 256 254 251 251 249 247 249 253 254
188 180 194 195 187 200 208 179 202 145 196 178 187 187 168 173 150 113 104 46 33 29 2 8 54 345 41 83 324 59 61 9 40 12 344 20 346 330 67 4 11 88 284 48 293 66 114 107 327 65 331 122 279 29 65 42 274 75 341 283 266 268 281 286 288 285 283 285 286 298 301 299 293 286 276 271 263 255 253 249 247 243 245 246 249
198 182 194 193 181 200 210 197 191 195 183 202 184 188 169 133 127 146 146 150 329 326 328 339 318 66 302 58 302 328 72 322 20 156 82 27 330 308 46 325 312 69 6 144 238 55 357 49 55 57 359 30 57 342 64 263 117 105 272 218 228 249 276 288 289 293 293 301 307 306 304 298 298 293 289 282 275 264 255 252 248 244 243 245 246
187 192 189 193 180 197 204 202 194 208 216 135 157 221 356 236 120 191 142 203 204 246 268 301 331 344 323 346 304 356 33 272 339 318 85 218 252 289 2 341 271 176 163 296 323 282 76 23 17 27 78 325 30 345 321 296 48 117 264 285 204 241 256 287 302 309 311 305 307 307 302 302 298 300 294 283 275 270 263 257 252 249 245 245 246
184 190 188 185 186 180 191 198 191 191 191 185 194 191 169 252 176 229 203 185 285 258 268 285 281 266 276 317 319 341 334 347 357 285 310 290 311 349 17 316 299 316 153 299 350 282 123 53 326 99 359 346 339 346 307 310 105 111 302 298 200 195 241 297 302 307 301 306 307 306 301 295 297 298 297 295 283 277 265 257 252 251 251 247 244
181 180 181 182 181 178 187 196 186 190 184 190 184 179 181 202 241 226 297 188 232 266 271 265 272 277 271 268 288 283 341 300 297 327 324 332 351 354 7 329 335 305 305 299 217 236 314 335 298 73 64 313 310 279 311 315 57 112 298 269 327 149 187 228 309 305 304 306 305 299 300 299 297 303 305 299 295 294 286 273 262 252 249 248 246
178 173 182 188 186 188 184 192 188 188 189 193 201 186 184 204 204 208 232 227 227 245 259 262 251 252 269 288 281 290 307 318 333 323 347 352 346 338 328 334 338 320 319 299 312 308 112 263 144 128 23 349 324 297 208 297 320 72 237 283 326 245 140 331 309 300 296 296 297 301 303 304 303 298 303 298 294 293 287 283 276 267 259 256 250
181 182 184 187 191 200 198 189 184 195 189 199 204 198 196 208 203 212 236 256 245 259 280 278 275 279 268 231 275 292 287 289 292 294 338 327 313 323 315 325 336 323 320 323 320 295 316 333 315 82 54 310 303 312 297 279 108 23 324 309 315 299 87 319 287 280 283 283 292 295 300 302 301 295 300 303 301 294 292 286 279 275 270 267 265
207 168 179 180 185 199 204 201 197 194 198 198 197 199 207 227 211 221 236 266 253 257 258 280 288 274 276 287 279 272 279 268 252 267 286 302 297 297 300 317 319 302 320 310 313 305 298 317 309 326 14 332 303 299 306 302 113 276 324 311 307 328 349 289 271 260 259 273 284 294 298 303 303 303 306 305 303 300 295 292 289 278 271 267 269
186 188 191 184 184 183 201 199 193 200 192 203 194 200 207 229 224 229 212 220 241 245 250 240 257 267 284 278 281 277 296 302 309 287 297 284 284 283 293 292 294 297 291 287 295 297 311 305 306 326 317 310 324 324 321 323 115 5 311 315 305 345 292 273 251 233 242 260 278 287 296 298 299 302 304 305 303 306 296 287 295 288 281 276 271
182 182 196 195 186 194 187 202 193 195 191 198 200 188 209 225 238 247 192 195 238 255 272 281 273 270 267 265 266 278 292 290 290 297 280 264 263 280 284 286 277 271 279 279 286 294 303 297 309 308 306 332 322 319 328 308 347 183 320 308 318 289 270 302 184 214 213 242 264 285 295 299 300 303 304 302 302 302 295 282 294 291 287 282 280
178 182 190 192 195 202 211 193 198 180 194 197 201 191 200 205 227 251 273 250 249 257 246 258 267 262 256 268 273 272 272 271 275 278 283 277 261 249 249 260 267 272 270 284 289 293 290 301 300 301 319 317 312 323 303 315 313 327 323 311 311 303 304 308 306 188 198 212 250 277 289 295 298 299 297 298 298 295 295 283 288 286 283 284 281
191 190 190 191 196 196 203 191 195 192 185 199 212 202 206 211 229 222 216 221 238 249 265 261 253 258 255 256 263 264 252 257 271 273 272 283 289 285 274 259 269 268 268 286 293 299 299 300 303 312 302 301 300 325 321 310 314 318 315 312 300 309 316 313 302 298 175 200 229 255 275 279 288 289 288 288 288 290 289 290 288 284 284 277 263
190 201 185 199 177 193 209 188 197 201 196 199 206 209 210 215 226 250 256 232 230 244 240 236 244 245 245 247 254 253 254 253 254 260 274 282 292 300 299 306 304 302 304 307 301 298 302 302 307 299 309 322 312 312 307 303 307 299 301 301 313 313 308 301 301 304 163 205 218 248 258 269 274 274 276 276 279 285 288 288 287 285 283 273 254
184 192 197 192 177 188 201 194 198 217 202 213 212 206 213 223 231 227 232 240 249 248 252 260 256 245 249 252 259 264 272 264 260 274 269 268 273 268 271 274 277 284 290 278 276 285 294 298 299 302 307 308 303 300 301 302 299 312 305 310 300 301 312 310 302 297 166 200 237 242 251 260 257 260 262 265 273 277 283 285 286 287 282 274 260
197 184 186 194 186 189 201 196 202 210 215 217 221 227 223 223 223 228 227 225 227 236 246 255 262 265 265 264 262 260 256 258 259 257 267 266 265 274 283 280 281 289 290 288 283 278 284 287 293 292 294 287 288 291 300 306 305 295 298 296 305 305 304 306 303 308 298 247 232 237 242 242 247 246 251 258 262 269 274 280 282 282 281 278 272
203 202 189 198 189 194 204 202 203 206 215 224 223 235 235 227 222 231 225 225 228 233 241 238 242 244 253 253 254 255 257 262 273 284 290 289 280 268 267 277 284 286 280 276 272 271 272 280 286 290 281 288 293 295 296 293 298 306 304 303 298 300 299 300 311 311 313 317 325 294 236 230 235 231 244 249 254 260 267 273 276 272 272 276 275
204 210 200 205 197 199 198 207 209 204 210 221 226 230 242 246 242 238 242 238 233 237 234 241 245 247 244 243 242 242 248 251 261 265 262 261 271 284 270 271 269 271 276 276 276 276 279 282 283 281 284 279 285 293 295 293 290 289 297 303 300 303 304 306 301 307 310 315 308 262 258 286 296 282 260 238 247 253 261 263 262 258 261 262 268
214 214 215 200 200 206 210 212 214 213 210 217 217 226 235 242 240 234 236 246 249 242 242 240 246 250 251 253 252 250 244 243 250 260 257 263 270 271 277 280 283 276 278 283 284 286 285 288 288 295 296 291 282 278 284 282 280 282 291 303 302 307 307 302 299 306 310 304 301 313 284 250 267 248 240 243 245 249 248 248 244 248 242 246 250
215 216 221 225 213 212 208 212 215 219 218 212 215 214 216 227 241 245 245 245 246 249 251 250 237 236 243 249 247 246 244 253 256 263 287 308 294 282 281 275 270 279 277 280 281 279 281 282 287 285 281 282 284 281 282 286 290 300 302 293 294 294 299 303 304 301 300 300 302 312 320 321 309 311 316 314 301 241 233 224 243 215 224 236 242
224 231 229 226 227 218 215 208 216 218 220 225 185 160 267 266 254 258 255 255 258 261 261 260 258 249 246 252 250 245 251 238 227 221 230 239 243 265 278 276 277 276 279 277 278 274 279 283 280 285 286 288 290 293 296 295 294 286 289 299 298 302 301 298 294 291 301 301 308 309 308 311 311 307 305 304 303 287 304 280 347 358 258 252 260
218 207 223 226 235 235 227 223 217 224 221 221 150 171 181 215 246 240 246 249 244 245 244 238 249 258 262 257 262 234 212 211 219 222 229 228 230 234 244 256 268 272 274 272 268 277 277 277 279 274 277 284 289 295 292 292 295 305 305 302 299 301 300 301 302 303 284 308 303 299 297 302 299 296 299 299 295 298 294 287 110 224 253 265 266
213 214 210 219 226 237 236 237 236 234 242 112 144 158 180 192 219 245 243 242 242 240 240 247 248 251 254 256 255 256 243 240 257 212 212 219 225 227 230 238 243 245 248 254 265 266 264 268 271 274 283 283 288 290 294 303 310 307 302 298 291 289 290 290 291 293 302 290 286 288 288 290 292 291 290 287 287 285 291 303 247 245 256 258 261
214 219 221 218 213 219 234 236 242 246 159 34 59 104 186 203 207 231 242 248 252 251 252 252 256 260 262 262 263 269 281 310 249 251 257 236 206 214 224 228 234 236 235 236 242 250 261 259 263 269 267 276 279 283 292 298 301 290 288 283 282 280 279 280 278 284 288 287 280 276 282 292 292 285 283 286 290 293 293 251 219 233 243 251 256
224 228 230 220 220 224 230 232 236 248 69 41 42 27 348 265 226 219 243 246 245 252 259 262 264 260 252 256 261 258 260 252 241 242 243 244 257 235 224 225 232 223 222 226 228 231 237 252 260 264 261 257 264 272 279 284 286 287 289 286 287 284 282 279 285 284 285 284 276 284 284 284 289 295 293 294 293 286 275 268 224 220 232 244 250
212 220 235 226 215 221 221 224 235 77 57 30 49 38 15 316 290 243 253 252 249 249 249 249 251 260 269 267 267 268 267 264 268 297 278 275 268 263 258 258 254 260 250 233 220 218 217 228 241 246 260 264 265 268 265 264 269 280 285 291 290 284 281 282 280 272 275 266 260 269 279 286 290 290 292 301 303 296 292 288 224 224 228 234 241
226 224 224 234 216 210 224 253 245 76 52 22 15 20 0 336 259 241 243 239 249 252 250 254 264 270 272 275 278 278 277 285 24 23 313 296 286 277 271 264 261 260 259 245 240 262 265 259 256 269 274 305 332 311 306 303 300 289 287 282 278 275 277 280 281 284 284 289 289 286 281 279 281 289 296 299 300 293 294 293 285 231 223 224 233
356 346 23 18 9 347 330 318 41 45 57 22 16 12 359 344 286 250 256 258 256 252 254 257 264 265 276 308 322 319 308 34 9 21 14 308 278 280 280 282 282 280 276 279 206 211 225 232 247 263 280 281 278 280 277 271 258 276 290 284 271 269 270 277 279 281 283 289 284 287 289 287 287 289 293 299 299 296 290 286 285 248 211 221 224
52 48 54 43 37 47 60 54 88 88 57 32 14 10 357 348 323 287 266 265 266 262 258 254 257 282 319 37 17 355 19 37 15 9 351 319 278 273 274 278 282 278 283 285 293 262 222 234 244 245 245 249 250 253 259 260 256 231 235 251 267 277 277 274 279 284 286 285 284 288 284 277 290 294 296 297 297 285 289 293 299 305 240 210 222
52 47 73 79 62 46 42 63 68 71 56 40 19 6 0 357 343 301 306 289 267 269 280 269 262 279 56 56 53 41 33 23 20 12 352 339 310 293 286 281 284 291 301 321 321 327 317 288 270 259 250 238 238 241 242 237 240 224 224 241 264 269 271 274 276 280 281 278 286 300 287 287 289 291 295 301 295 295 293 291 293 290 289 293 273